SENTINEL-6

Last updated on Tue Nov 18 2025 00:02:31 GMT+0000 (Coordinated Universal Time)

1 46984U 20086A 25321.42164095 -.00000045 00000+0 68576-4 0 9996 2 46984 66.0402 214.8928 0007778 268.9885 91.0239 12.80929392233209

Satellite not in orbit

SENTINEL-6